Cut Bank, MT

5:28 AM MDT on August 18, 2017 (GMT -0600)
Cut Bank Municipal

Weather History for KCTB - December, 2011

Change the Weather History Date:

Wednesday, December 28, 2011

  Actual Average Record
Temperature  
Mean Temperature 42 °F 21 °F  
Max Temperature 50 °F 32 °F 60 °F (1956)
Min Temperature 33 °F 11 °F -35 °F (1968)
Degree Days  
Heating Degree Days 23 44  
Month to date heating degree days 1037 1198  
Since 1 July heating degree days 3010 3461  
Cooling Degree Days 0 0  
Month to date cooling degree days 0 0  
Year to date cooling degree days 151 162  
Moisture  
Dew Point 30 °F    
Average Humidity 58    
Maximum Humidity 70    
Minimum Humidity 46    
Precipitation  
Precipitation 0.00 in 0.01 in 0.40 in (1923)
Month to date precipitation 0.18 0.20  
Year to date precipitation 6.30 10.88  
Snow  
Snow 0.00 in - - ()
Snow Depth 0.00 in    
Sea Level Pressure  
Sea Level Pressure 29.62 in    
Wind  
Wind Speed 25 mph (WSW)    
Max Wind Speed 41 mph    
Max Gust Speed 51 mph    
Visibility 10 miles    
Events      
T = Trace of Precipitation, MM = Missing Value Source: NWS Daily Summary

Daily Weather History Graph

Daily Weather History Graph

Search for Another Location

Airport or City:

Trip Planner

Search our weather history database for the weather conditions in past years. The results will help you decide how hot, cold, wet, or windy it might be!

Date:

Astronomy

Dec. 28, 2011 Rise Set
Actual Time 8:21 AM MST 4:40 PM MST
Civil Twilight 7:44 AM MST 5:17 PM MST
Nautical Twilight 7:04 AM MST 5:57 PM MST
Astronomical Twilight 6:26 AM MST 6:36 PM MST
Moon 10:28 AM MST (12/28) 9:44 PM MST (12/28)
Length of Visible Light 9h 32m
Length of Day
8h 19m
Waxing Crescent, 18% of the Moon is Illuminated
Dec 28
Waxing Crescent
Dec 31
First Quarter
Jan 9
Full
Jan 16
Last Quarter
Jan 23
New

Hourly Weather History & Observations

Time (MST) Temp. Windchill Dew Point Humidity Pressure Visibility Wind Dir Wind Speed Gust Speed Precip Events Conditions
12:56 AM 34.0 °F 28.0 °F 24.1 °F 67% 29.73 in 10.0 mi SSE 6.9 mph - N/A   Clear
1:56 AM 34.0 °F 26.0 °F 21.9 °F 61% 29.68 in 10.0 mi South 10.4 mph 19.6 mph N/A   Partly Cloudy
2:56 AM 39.9 °F 31.4 °F 27.0 °F 60% 29.63 in 10.0 mi SW 16.1 mph - N/A   Clear
3:56 AM 43.0 °F 33.8 °F 28.9 °F 58% 29.59 in 10.0 mi WSW 23.0 mph 32.2 mph N/A   Clear
4:56 AM 41.0 °F 29.0 °F 30.9 °F 67% 29.60 in 10.0 mi WSW 35.7 mph 44.9 mph N/A   Clear
5:56 AM 41.0 °F 29.3 °F 30.0 °F 65% 29.59 in 10.0 mi WSW 33.4 mph 43.7 mph N/A   Clear
6:56 AM 39.9 °F 29.2 °F 30.9 °F 70% 29.63 in 10.0 mi WSW 25.3 mph 38.0 mph N/A   Clear
7:56 AM 41.0 °F 30.5 °F 30.9 °F 67% 29.64 in 10.0 mi WSW 26.5 mph 32.2 mph N/A   Clear
8:56 AM 39.9 °F 30.8 °F 30.9 °F 70% 29.65 in 10.0 mi WSW 18.4 mph - N/A   Clear
9:56 AM 45.0 °F 35.8 °F 33.1 °F 63% 29.66 in 10.0 mi WSW 26.5 mph 36.8 mph N/A   Scattered Clouds
10:56 AM 46.9 °F - 33.1 °F 59% 29.68 in 10.0 mi WSW 24.2 mph 31.1 mph N/A   Clear
11:56 AM 46.0 °F 36.1 °F 33.1 °F 61% 29.63 in 10.0 mi WSW 34.5 mph 44.9 mph N/A   Clear
12:56 PM 48.0 °F - 33.1 °F 56% 29.65 in 10.0 mi West 25.3 mph 35.7 mph N/A   Clear
1:56 PM 48.0 °F - 32.0 °F 54% 29.66 in 10.0 mi WSW 36.8 mph 50.6 mph N/A   Clear
2:56 PM 46.9 °F - 32.0 °F 56% 29.67 in 10.0 mi West 33.4 mph 41.4 mph N/A   Clear
3:56 PM 44.1 °F 34.8 °F 30.0 °F 58% 29.68 in 10.0 mi WSW 25.3 mph 32.2 mph N/A   Clear
4:56 PM 43.0 °F 32.2 °F 30.9 °F 62% 29.67 in 10.0 mi WSW 32.2 mph 41.4 mph N/A   Clear
5:56 PM 45.0 °F 34.3 °F 30.9 °F 58% 29.63 in 10.0 mi WSW 36.8 mph 49.5 mph N/A   Clear
6:56 PM 43.0 °F 33.8 °F 30.9 °F 62% 29.64 in 10.0 mi West 23.0 mph 35.7 mph N/A   Clear
7:56 PM 44.1 °F 34.8 °F 30.9 °F 60% 29.59 in 10.0 mi West 25.3 mph 36.8 mph N/A   Clear
8:56 PM 45.0 °F 37.6 °F 28.9 °F 53% 29.56 in 10.0 mi WSW 17.3 mph 24.2 mph N/A   Clear
9:56 PM 48.0 °F - 28.0 °F 46% 29.50 in 10.0 mi WSW 28.8 mph 35.7 mph N/A   Clear
10:56 PM 48.9 °F - 28.9 °F 46% 29.51 in 10.0 mi South 23.0 mph 29.9 mph N/A   Partly Cloudy
11:56 PM 46.0 °F 40.2 °F 30.0 °F 54% 29.49 in 10.0 mi SW 12.7 mph - N/A   Mostly Cloudy